Погода в Астрахани

Россия / Кировская область     57°49′27″N   51°15′41″E
темп.,
°C
ветер,
м/с
пор.,
м/с
влажн.,
%
обл.,
%
осадки,
мм/ч
давл.,
гПа
погр.,
м
6 марта, сб
сб600:00−14зсз349693 0.1 100644
03:00−18сз349886 0.1 100855
06:00−20зсз339944 0.0 101033
09:00−16з359550 0.0 1011235
12:00−13з459195 0.0 1012478
15:00−12з468998 0.1 1011677
18:00−15зюз3496100 0.1 101146
21:00−17зюз339895 0.1 101142
7 марта, вс
вс700:00−18зюз239979 0.1 101025
03:00−19юз2210080 0.1 101020
06:00−19юз229993 0.1 100921
09:00−16ююз249594 0.1 1009215
12:00−12юз3486100 0.1 1008542
15:00−10ююз4587100 0.1 1006747
18:00−14ююв459699 0.1 100487
21:00−13ююв51096100 0.1 1002337
8 марта, пн
пн800:00−12юв61294100 0.3 998474
03:00−11юв71294100 0.9 995576
06:00−10юв71394100 0.6 992549
09:00−8юз7991100 1.3 992651
12:00−8юз6888100 0.1 993883
15:00−8юз5892100 0.6 994749
18:00−8зюз2496100 1.7 995230
21:00−11зсз2293100 2.8 99628
9 марта, вт
вт900:00−15сз239791 0.1 99820
03:00−15ссз479693 0.2 1001169
06:00−16ссз4896100 0.2 1003265
09:00−16сз479398 0.3 1006367
12:00−14сз4691100 0.1 1008520
15:00−13сз4689100 0.1 1010622
18:00−16сз4796100 0.1 1012231
21:00−20ссз359990 0.1 101483
10 марта, ср
ср1000:00−23ссз349972 0.0 101573
03:00−25с349976 0.0 101758
06:00−28с449873 0.0 101878
09:00−25с469536 0.0 1019245
12:00−21с458766 0.0 1019439
15:00−19ссз468670 0.0 1019489
18:00−23сз34948 0.0 101936
21:00−24зсз44967 0.0 102060